www.pogodaiklimat.ru

Погода и климат >> Архив погоды >> Россия >> Якутия >> Батагай-Алыта


ПОГОДА в Батагай-Алыте

  • Прогноз погоды в Батагай-Алыте
  • Монитор погоды в Батагай-Алыте

АРХИВ ПОГОДЫ в Батагай-Алыте

Время (UTC), дата Ветер
(напр.,м/с)
 
Видим.   Явления Облачность Т
(С)
Тd
(С)
f
(%)
Тe
(С)
Тes
(С)
Комфортность P
(гПа)
Po
(гПа)
Тmin
(С)
Tmax
(С)
R
(мм)
R24
(мм)
S
(см)
06 10.07 Ю 3 50 км 8/6 1000 м
[Cb cap Ac trans]
+25.4 +14.2 50 +28 +30 жарко 1000.9 946.7
09 10.07 З 8-11
{12}
н/о н/о +22.6 +13.5 56 +26 +26 жарко 1002.7 947.9 +26.6
12 10.07 штиль 0
{11}
н/о н/о +19.5 +15.0 75 +21 +21 комфорт 1004.6 949.2
15 10.07 СЗ 1 н/о н/о +15.0 +13.8 93 +15 +15 1006.3 949.9
18 10.07 З 2 н/о н/о +12.8 +13.1 100 +12 +12 1008.0 951.1
21 10.07 З 2 н/о н/о +16.4 +13.9 85 +17 +17 1008.2 952.0 +12.6
00 11.07 СЗ 3 50 км 5/5 1500 м
[Cu med, cong]
+21.2 +14.6 66 +24 +27 комфорт 1007.7 952.4 +12.6
03 11.07 З 3 50 км 6/6 1000 м
[Cb cap]
+26.0 +12.1 42 +27 +31 жарко 1006.2 951.8
06 11.07 З 7 50 км 6/6 1000 м
[Cb cap]
+26.3 +10.4 37 +27 +28 жарко 1006.6 952.1
09 11.07 ЮЗ 1
{12}
н/о н/о +22.5 +12.7 54 +25 +25 комфорт 1008.8 953.7 +26.4
12 11.07 ЮВ 2 н/о н/о +21.4 +13.9 62 +24 +24 комфорт 1009.8 954.4
15 11.07 СЗ 1 н/о н/о +14.0 +12.2 89 +14 +14 1012.0 955.1
18 11.07 З 1 н/о н/о +11.1 +10.6 97 +11 +11 1013.1 955.6
21 11.07 СЗ 1 н/о н/о +14.7 +12.2 85 +15 +15 1012.4 955.6 +10.9
00 12.07 штиль 0 50 км 5/0
[Ci fib]
+19.7 +13.6 68 +21 +30 комфорт 1010.5 954.8 +10.9
03 12.07 Ю 4 50 км 8/0
[Ci fib]
+25.7 +12.9 45 +28 +34 жарко 1007.5 952.9
06 12.07 ЮВ 3 50 км 8/0
[Ci fib]
+28.0 +11.9 37 +29 +35 жарко 1005.3 951.2
09 12.07 ЮВ 3 н/о н/о +27.2 +12.8 41 +29 +29 жарко 1003.8 949.8 +28.6
12 12.07 В 3 н/о н/о +24.5 +14.4 53 +27 +27 жарко 1004.0 949.5
15 12.07 СЗ 2 н/о н/о +15.2 +12.4 83 +15 +15 1006.0 949.6
18 12.07 С 1 н/о н/о +13.5 +10.9 84 +14 +14 1007.0 950.2
21 12.07 СЗ 3 н/о н/о +16.0 +11.3 74 +16 +16 1007.4 951.1 +12.3
00 13.07 С 4 20 км дым 8/0
[Ci fib]
+20.9 +15.1 69 +24 +28 комфорт 1006.5 951.3
03 13.07 С 6 20 км дым 8/0
[Ci fib]
+21.4 -15.7 7 +20 +23 1005.7 950.5
06 13.07 С 7-13
{15}
20 км дым 8/4 1500 м
[Cb cap Ci fib]
+16.4 +13.1 81 +15 +16 1006.8 950.6
09 13.07 С 4
{13}
н/о н/о +15.0 +13.5 91 +14 +14 1007.6 951.1 +23.0
12 13.07 С 2 н/о н/о +13.0 +12.1 94 +12 +12 1008.5 951.6
15 13.07 С 1 н/о н/о +11.3 +11.4 100 +11 +11 1008.9 951.6
18 13.07 штиль 0 н/о н/о +11.3 +11.8 100 +11 +11 1007.6 950.4
21 13.07 штиль 0 н/о н/о +11.6 +12.3 100 +11 +11 1006.2 949.2 +11.2
00 14.07 З 1 н/о н/о +12.8 +12.1 96 +13 +13 1005.9 949.1
03 14.07 В 2 н/о н/о +16.8 +13.9 83 +17 +17 1004.9 948.9
06 14.07 ЮВ 4 н/о н/о +21.2 +15.2 69 +24 +24 комфорт 1004.1 949.0
09 14.07 СВ 8-13
{14}
н/о н/о +18.0 +11.8 67 +17 +17 1007.3 951.4 +22.1
12 14.07 ЮВ 1
{13}
н/о н/о +14.8 +9.4 70 +15 +15 1011.3 954.5
15 14.07 С 1 н/о н/о +10.5 +9.0 90 +10 +10 1013.2 955.5
18 14.07 СЗ 1 н/о н/о +8.9 +8.5 97 +8 +8 1014.2 956.1
21 14.07 ЮВ 1 н/о н/о +12.4 +10.0 85 +12 +12 1012.9 955.6 +7.7
00 15.07 ЮВ 3 н/о н/о +15.6 +10.1 70 +15 +15 1011.7 955.1
03 15.07 Ю 2 н/о н/о +20.1 +9.2 49 +22 +22 комфорт 1009.0 953.3
06 15.07 ЮВ 3 н/о н/о +21.0 +9.5 48 +23 +23 комфорт 1007.7 952.3
09 15.07 СВ 5 н/о н/о +21.1 +9.6 48 +22 +22 комфорт 1007.6 952.2 +22.5
12 15.07 С 7-12
{13}
н/о н/о +14.0 +8.0 67 +12 +12 1010.9 954.0
15 15.07 ЮЗ 1
{13}
н/о н/о +9.2 +5.3 77 +9 +9 1014.8 956.6
18 15.07 С 1 н/о н/о +7.0 +4.3 83 +6 +6 1015.6 957.0
21 15.07 ЮЗ 1 н/о н/о +7.6 +4.8 82 +7 +7 1015.3 956.8 +6.1
00 16.07 ЮВ 1 50 км 8/4 1500 м
[Sc Ac trans]
+11.9 +5.7 66 +12 +15 1013.9 956.3 +6.1
03 16.07 Ю 3 50 км 3/3 1500 м
[Cu med, cong]
+16.0 +6.3 53 +16 +22 1011.6 954.9
06 16.07 ЮВ 2 50 км 3/3 1500 м
[Cu med, cong]
+18.7 +5.9 43 +20 +25 1009.2 953.2
09 16.07 ЮВ 3 н/о н/о +19.0 +6.0 43 +20 +20 1007.6 951.8 +19.6
12 16.07 В 2 н/о н/о +14.6 +6.4 58 +14 +14 1008.3 951.6
15 16.07 СЗ 2 н/о н/о +8.5 +5.3 80 +7 +7 1009.1 951.2
18 16.07 СЗ 1 н/о н/о +8.7 +6.4 85 +8 +8 1008.1 950.3
21 16.07 штиль 0 н/о н/о +10.3 +7.2 81 +10 +10 1006.7 949.2 +8.4
00 17.07 В 1 4000 м в посл. час дождь {ливн. осадки} 10/10 600 м
[Cb cap Ac und]
+11.1 +8.1 82 +11 +11 1005.7 948.5 +8.5
03 17.07 В 2 4000 м дым ?/? +11.7 +6.8 72 +11 +11 1004.5 947.5

 

Местоположение метеостанции Батагай-Алыта (Якутия, Россия): широта 67.78 долгота 130.40 высота над уровнем моря 491 м.

В архиве по умолчанию представлена погода в Батагай-Алыте за последнюю неделю. Архивные данные за месяц целиком и за предыдущие месяцы, начиная с января 2011 года, Вы можете получить, выбрав интересующий диапазон дат из раскрывающегося списка и нажав кнопку "Ввод!".


*Определитесь, кто Вы:
робот инопланетянин человек

Внимание! Время в таблицах - всемирное. Для получения местного времени необходимо прибавить поправку, которая равна 9 ч.

Смотрите также архив погоды в соседних городах и на ближайших метеорологических станциях:

Погода в Екюччю (Якутия, Россия) (124 км)
Погода в Верхоянске (Якутия, Россия) (129 км)
Погода в Батагае (Якутия, Россия) (178 км)
Погода в Себян-Кюеле (Якутия, Россия) (276 км)
Погода в Джарджане (Якутия, Россия) (284 км)
Погода в Усть-Чарках (Якутия, Россия) (288 км)
Погода в Усть-Куйге (Якутия, Россия) (323 км)
Погода в Жиганске (Якутия, Россия) (324 км)
Погода в Кюсюре (Якутия, Россия) (343 км)
Погода в Иэме (Якутия, Россия) (365 км)

Пояснения к столбцам:

Ветер - указаны скорость ветра в м/с - средняя за 10 мин, порывы в срок и между сроками (в фигурных скобках) и направление, откуда дует ветер: С - северный, СВ - северо-восточный, В - восточный, ЮВ - юго-восточный, Ю - южный, ЮЗ - юго-западный, З - западный, СЗ - северо-западный.
Видимость - горизонтальная дальность видимости в метрах или километрах. При видимости от 1 до 10 км при отсутствии осадков обычно наблюдается дымка, при ухудшении видимости до 1 км и менее - туман. В сухую погоду видимость может ухудшаться дымом, пылью или мглою.
Явления - указаны атмосферные явления, наблюдавшиеся в срок или в последний час перед сроком; фигурными скобками обозначены явления, наблюдавшиеся между сроками (за 1-3 часа до срока); квадратными скобками обозначены град или гололедные отложения с указанием их диаметра в мм.
Облачность - указаны через наклонную черту общая и нижняя облачность в баллах и высота нижней границы облаков в метрах; квадратными скобками обозначены формы облаков: Ci - перистые, Cs - перисто-слоистые, Cc - перисто-кучевые, Ac - высококучевые, As - высокослоистые, Sc - слоисто-кучевые, Ns - слоисто-дождевые, Cu - кучевые, Cb - кучево-дождевые. Подробнее классификацию облаков см. в Атласе облаков (PDF).
T - Температура воздуха - температура, измеренная на высоте 2 м над землей.
Td - Температура точки росы - температура, при понижении до которой содержащийся в воздухе водяной пар достигнет насыщения.
f - Относительная влажность воздуха - влажноcть воздуха, измеренная на высоте 2 м над землей.
Te - Эффективная температура - температура, которую ощущает одетый по сезону человек в тени. Характеристика душности погоды. При расчете учитывается влияние влажности воздуха и скорости ветра на теплоощущения человека.
Tes - Эффективная температура на солнце - температура, которую ощущает человек, с поправкой на солнечный нагрев. Характеристика знойности погоды. Зависит от высоты солнца над горизонтом, облачности и скорости ветра. Ночью, в пасмурную погоду, а также при ветре 12 м/с и более поправка равна нулю.
P - Атмосферное давление - приведенное к уровню моря атмосферное давление.
Po - Атмосферное давление - измеренное на уровне метеостанции атмосферное давление.
Tmin - Минимальная температура - минимум температуры воздуха на высоте 2 м над землей.
Tmax - Максимальная температура - максимум температуры воздуха на высоте 2 м над землей.
R - Количество осадков - Количество выпавших осадков за период времени, мм. При наведении курсора мыши на число - период времени, за который выпало указанное количество осадков.
R24 - Количество осадков - Количество выпавших осадков за 24 часа, мм.
S - Снежный покров - Высота снежного покрова, см. При наведении курсора мыши на число - состояние снежного покрова и степень покрытия местности в баллах.